EW2345 Weather Reports


time (UTC)temp
F
wind
direction
speed
knots
gust
knots
rain 1hr
in
rain 24hr
in
rain mn
in
humidity
%
barometer
mb
20260507095910 61 69 0.0 2.6 0.00 0.00 0.00 67 1010.0
20260507095410 61 69 0.9 2.6 0.00 0.00 0.00 67 1010.1
20260507094910 61 69 0.9 2.6 0.00 0.00 0.00 67 1010.1
20260507094409 62 69 0.9 4.3 0.00 0.00 0.00 66 1010.1
20260507093909 62 69 0.0 4.3 0.00 0.00 0.00 67 1010.1
20260507093410 62 69 0.0 4.3 0.00 0.00 0.00 68 1010.1
20260507092910 62 69 0.9 4.3 0.00 0.00 0.00 68 1010.1
20260507092410 61 69 2.6 5.2 0.00 0.00 0.00 70 1010.2
20260507091910 60 69 0.9 2.6 0.00 0.00 0.00 74 1010.3
20260507091409 60 69 0.9 2.6 0.00 0.00 0.00 72 1010.3
20260507090909 60 69 1.7 2.6 0.00 0.00 0.00 74 1010.3
20260507090410 59 69 1.7 4.3 0.00 0.00 0.00 75 1010.3
20260507085911 58 69 0.9 4.3 0.00 0.00 0.00 74 1010.3
20260507085410 57 69 2.6 4.3 0.00 0.00 0.00 76 1010.4
20260507084910 57 69 0.9 1.7 0.00 0.00 0.00 79 1010.4
20260507084409 57 69 0.9 4.3 0.00 0.00 0.00 78 1010.5
20260507083910 56 69 0.0 1.7 0.00 0.00 0.00 81 1010.5
20260507083410 56 69 0.0 0.0 0.00 0.00 0.00 83 1010.4
20260507082910 55 69 0.0 0.0 0.00 0.00 0.00 83 1010.4
20260507082409 55 69 0.0 1.7 0.00 0.00 0.00 84 1010.4
20260507081410 53 69 0.9 1.7 0.00 0.00 0.00 86 1010.4
20260507080910 53 69 0.0 1.7 0.00 0.00 0.00 87 1010.5
20260507075910 53 69 1.7 2.6 0.00 0.00 0.00 88 1010.6
20260507074910 52 69 0.9 2.6 0.00 0.00 0.00 88 1010.6
20260507074410 52 69 0.9 2.6 0.00 0.00 0.00 89 1010.7
20260507073909 51 69 2.6 4.3 0.00 0.00 0.00 89 1010.7
20260507073409 51 69 0.9 4.3 0.00 0.00 0.00 89 1010.7
20260507072410 50 69 0.9 2.6 0.00 0.00 0.00 92 1010.9
20260507071910 50 69 0.0 2.6 0.00 0.00 0.00 93 1010.9
20260507071409 49 69 0.9 2.6 0.00 0.00 0.00 93 1011.0
20260507070410 49 69 0.0 1.7 0.00 0.00 0.00 95 1011.0
20260507065910 49 69 0.0 0.9 0.00 0.00 0.00 97 1011.0
20260507065409 48 69 0.0 0.0 0.00 0.00 0.00 97 1011.0
20260507064909 48 69 0.9 1.7 0.00 0.00 0.00 97 1011.1
20260507064409 48 69 0.0 0.9 0.00 0.00 0.00 98 1011.2
20260507063910 48 69 0.0 0.0 0.00 0.00 0.00 98 1011.1
20260507063410 47 69 0.0 0.0 0.00 0.00 0.00 98 1011.1
20260507062409 47 69 0.0 0.9 0.00 0.00 0.00 98 1011.1
20260507061910 47 69 0.9 1.7 0.00 0.00 0.00 98 1010.9
20260507061409 46 69 0.9 1.7 0.00 0.00 0.00 99 1011.0
20260507060909 45 69 0.0 0.9 0.00 0.00 0.00 98 1011.0
20260507060409 45 69 0.0 0.0 0.00 0.00 0.00 98 1011.0
20260507055410 44 69 0.9 1.7 0.00 0.00 0.00 97 1011.0
20260507054910 44 69 0.0 1.7 0.00 0.01 0.00 97 1011.0
20260507053910 53 67 0.0 0.0 0.00 0.01 0.00 84 1012.9
20260507053410 53 67 0.0 0.0 0.00 0.01 0.00 84 1012.9
20260507052911 53 67 0.0 0.0 0.00 0.01 0.00 84 1012.9
20260507052410 53 67 0.0 0.0 0.00 0.01 0.00 84 1012.9
20260507051910 53 67 0.0 0.0 0.00 0.01 0.00 84 1012.9
20260507051409 53 67 0.0 0.0 0.00 0.01 0.00 84 1012.9
20260507050409 53 67 0.0 0.0 0.00 0.01 0.00 84 1012.9
20260507045911 53 67 0.0 0.0 0.00 0.01 0.00 84 1012.9
20260507045410 53 67 0.0 0.0 0.00 0.01 0.00 84 1012.9
20260507044410 53 67 0.0 0.0 0.00 0.01 0.00 84 1012.9
20260507043910 53 67 0.0 0.0 0.00 0.01 0.00 84 1012.9
20260507043410 53 67 0.0 0.0 0.00 0.01 0.00 84 1012.9
20260507042912 53 67 0.0 0.0 0.00 0.01 0.00 84 1012.9
20260507042410 53 67 0.0 0.0 0.00 0.01 0.00 84 1012.9
20260507041910 53 67 0.0 0.0 0.00 0.01 0.00 84 1012.9
20260507041410 53 67 0.0 0.0 0.00 0.01 0.00 84 1012.9
20260507040911 53 67 0.0 0.0 0.00 0.01 0.00 84 1012.9
20260507040410 53 67 0.0 0.0 0.00 0.01 0.00 84 1012.9
20260507035911 53 67 0.0 0.0 0.00 0.01 0.00 84 1012.9
20260507034410 53 67 0.0 0.0 0.00 0.01 0.00 84 1012.9
20260507033910 53 67 0.0 0.0 0.00 0.01 0.00 84 1012.9
20260507033410 53 67 0.0 0.0 0.00 0.01 0.00 84 1012.9
20260507032911 53 67 0.0 0.0 0.00 0.01 0.00 84 1012.9
20260507032410 53 67 0.0 0.0 0.00 0.01 0.00 84 1012.9
20260507031910 53 67 0.0 0.0 0.00 0.01 0.00 84 1012.9
20260507030910 53 67 0.0 0.0 0.00 0.01 0.00 84 1012.9
20260507025410 53 67 0.0 0.0 0.00 0.01 0.00 84 1012.9
20260507024910 53 67 0.0 0.0 0.00 0.01 0.00 84 1012.9
20260507024409 53 67 0.0 0.0 0.00 0.01 0.00 84 1012.9
20260507023909 53 67 0.0 0.0 0.00 0.01 0.00 84 1012.9
20260507023410 53 67 0.0 0.0 0.00 0.01 0.00 84 1012.9
20260507022911 53 67 0.0 0.0 0.00 0.01 0.00 84 1012.9
20260507021910 53 67 0.0 0.0 0.00 0.01 0.00 84 1012.9
20260507021410 53 67 0.0 0.0 0.00 0.01 0.00 84 1012.9
20260507020910 53 67 0.0 0.0 0.00 0.01 0.00 84 1012.9
20260507015409 53 67 0.0 0.0 0.00 0.01 0.00 84 1012.9
20260507014910 53 67 0.0 0.0 0.00 0.01 0.00 84 1012.9
20260507014410 53 67 0.0 0.0 0.00 0.01 0.00 84 1012.9
20260507013910 53 67 0.0 0.0 0.00 0.01 0.00 84 1012.9
20260507013410 53 67 0.0 0.0 0.00 0.01 0.00 84 1012.9
20260507012911 53 67 0.0 0.0 0.00 0.01 0.00 84 1012.9
20260507011910 53 67 0.0 0.0 0.00 0.01 0.00 84 1012.9
20260507011410 53 67 0.0 0.0 0.00 0.01 0.00 84 1012.9
20260507010410 53 67 0.0 0.0 0.00 0.01 0.00 84 1012.9
20260507005911 53 67 0.0 0.0 0.00 0.01 0.00 84 1012.9
20260507005409 53 67 0.0 0.0 0.00 0.01 0.00 84 1012.9
20260507004910 53 67 0.0 0.0 0.00 0.01 0.00 84 1012.9
20260507004410 53 67 0.0 0.0 0.00 0.01 0.00 84 1012.9
20260507003910 53 67 0.0 0.0 0.00 0.01 0.00 84 1012.9
20260507003410 53 67 0.0 0.0 0.00 0.01 0.00 84 1012.9
20260507002911 53 67 0.0 0.0 0.00 0.01 0.00 84 1012.9
20260507002410 53 67 0.0 0.0 0.00 0.01 0.00 84 1012.9
20260507001410 53 67 0.0 0.0 0.00 0.01 0.00 84 1012.9
20260507000910 53 67 0.0 0.0 0.00 0.01 0.00 84 1012.9
20260507000412 53 67 0.0 0.0 0.00 0.01 0.00 84 1012.9
20260506234910 53 67 0.0 0.0 0.00 0.01 0.00 84 1012.9
20260506234410 53 67 0.0 0.0 0.00 0.01 0.00 84 1012.9
20260506233910 53 67 0.0 0.0 0.00 0.01 0.00 84 1012.9
20260506233410 53 67 0.0 0.0 0.00 0.01 0.00 84 1012.9
20260506232911 53 67 0.0 0.0 0.00 0.01 0.00 84 1012.9
20260506231909 53 67 0.0 0.0 0.00 0.01 0.00 84 1012.9
20260506231410 53 67 0.0 0.0 0.00 0.01 0.00 84 1012.9
20260506230911 53 67 0.0 0.0 0.00 0.01 0.00 84 1012.9
20260506230410 53 67 0.0 0.0 0.00 0.01 0.00 84 1012.9
20260506225409 53 67 0.0 0.0 0.00 0.01 0.00 84 1012.9
20260506224909 53 67 0.0 0.0 0.00 0.01 0.00 84 1012.9
20260506224409 53 67 0.0 0.0 0.00 0.01 0.00 84 1012.9
20260506223910 53 67 0.0 0.0 0.00 0.01 0.00 84 1012.9
20260506223410 53 67 0.0 0.0 0.00 0.01 0.00 84 1012.9
20260506222410 53 67 0.0 0.0 0.00 0.01 0.00 84 1012.9
20260506221910 53 67 0.9 2.6 0.00 0.01 0.00 84 1012.9
20260506221410 53 66 0.9 4.3 0.00 0.01 0.00 84 1013.0
20260506220910 54 69 4.3 6.1 0.00 0.01 0.00 84 1013.1
20260506220410 54 82 1.7 4.3 0.00 0.01 0.00 84 1013.1
20260506215910 54 80 2.6 6.1 0.00 0.01 0.00 83 1013.1
20260506215410 54 66 0.9 7.0 0.00 0.01 0.01 83 1013.1
20260506214910 54 79 2.6 6.1 0.00 0.01 0.01 83 1013.1
20260506214410 54 71 1.7 5.2 0.00 0.01 0.01 83 1013.1
20260506213910 54 73 2.6 6.1 0.00 0.01 0.01 82 1013.1
20260506212409 55 79 3.5 7.0 0.00 0.01 0.01 82 1013.1
20260506211910 55 72 2.6 6.1 0.00 0.01 0.01 82 1013.1
20260506211410 55 76 1.7 5.2 0.00 0.01 0.01 82 1013.1
20260506210910 55 76 0.9 4.3 0.00 0.01 0.01 82 1013.1
20260506210410 55 76 1.7 4.3 0.00 0.01 0.01 82 1013.1
20260506205911 55 75 1.7 5.2 0.00 0.01 0.01 82 1013.1
20260506205410 55 62 1.7 6.1 0.00 0.01 0.01 82 1013.0
20260506204910 55 26 2.6 7.0 0.00 0.01 0.01 83 1013.0
20260506204410 54 63 2.6 7.8 0.00 0.01 0.01 83 1012.9
20260506203909 54 74 1.7 5.2 0.00 0.01 0.01 84 1012.8
20260506203410 54 75 1.7 6.1 0.00 0.01 0.01 83 1012.8
20260506202911 54 238 0.0 4.3 0.00 0.01 0.01 83 1012.8
20260506202410 54 238 0.0 0.9 0.00 0.01 0.01 83 1012.8
20260506201910 55 238 0.0 0.9 0.00 0.01 0.01 83 1012.7
20260506201410 55 238 0.0 1.7 0.00 0.01 0.01 82 1012.7
20260506200910 55 238 2.6 4.3 0.00 0.01 0.01 82 1012.7
20260506200410 55 238 2.6 4.3 0.00 0.01 0.01 81 1012.6
20260506195911 56 238 1.7 4.3 0.00 0.01 0.01 81 1012.6
20260506195409 56 238 2.6 5.2 0.00 0.01 0.01 81 1012.6
20260506194410 56 238 4.3 6.1 0.00 0.01 0.01 80 1012.6
20260506193910 56 238 4.3 5.2 0.00 0.01 0.01 80 1012.5
20260506193410 57 238 3.5 5.2 0.00 0.01 0.01 79 1012.5
20260506192911 57 238 4.3 5.2 0.00 0.01 0.01 79 1012.5
20260506192410 57 238 4.3 5.2 0.00 0.01 0.01 79 1012.4
20260506191910 57 238 4.3 6.1 0.00 0.01 0.01 78 1012.4
20260506191410 58 238 4.3 5.2 0.00 0.01 0.01 78 1012.4
20260506190910 58 238 3.5 5.2 0.00 0.01 0.01 78 1012.3
20260506190410 58 238 3.5 5.2 0.00 0.01 0.01 77 1012.4
20260506185911 58 238 1.7 5.2 0.00 0.01 0.01 77 1012.4
20260506185410 58 238 2.6 4.3 0.00 0.01 0.01 77 1012.3
20260506184410 58 238 4.3 6.1 0.00 0.01 0.01 77 1012.3
20260506183410 58 265 2.6 6.1 0.00 0.01 0.01 77 1012.3
20260506182911 58 281 2.6 4.3 0.00 0.01 0.01 77 1012.2
20260506182410 58 281 1.7 4.3 0.00 0.01 0.01 76 1012.3
20260506181910 58 281 1.7 4.3 0.00 0.01 0.01 77 1012.3
20260506181409 58 281 0.0 1.7 0.00 0.01 0.01 77 1012.2
20260506180910 58 281 1.7 7.0 0.00 0.01 0.01 77 1012.3
20260506180410 58 211 1.7 6.1 0.00 0.01 0.01 79 1012.3
20260506175910 58 211 1.7 4.3 0.00 0.01 0.01 80 1012.3
20260506175409 58 211 4.3 6.1 0.00 0.01 0.01 80 1012.3
20260506174909 58 211 4.3 5.2 0.00 0.02 0.01 81 1012.3
20260506173909 58 211 4.3 6.1 0.00 0.02 0.01 80 1012.4
20260506173409 58 211 5.2 7.8 0.00 0.03 0.01 81 1012.5
20260506172911 58 209 5.2 7.8 0.00 0.03 0.01 82 1012.5
20260506172410 58 227 6.1 8.7 0.00 0.03 0.01 81 1012.4
20260506171910 58 236 5.2 8.7 0.00 0.03 0.01 79 1012.5
20260506165910 59 241 6.1 10.4 0.00 0.03 0.01 78 1012.6
20260506165410 59 248 7.0 11.3 0.00 0.03 0.01 77 1012.6
20260506164909 59 246 6.1 10.4 0.00 0.03 0.01 77 1012.5
20260506164409 59 238 7.8 12.2 0.00 0.03 0.01 76 1012.5
20260506163910 60 248 6.1 10.4 0.00 0.03 0.01 74 1012.6
20260506163410 60 230 6.1 10.4 0.00 0.03 0.01 71 1012.6
20260506162910 60 234 7.0 10.4 0.00 0.03 0.01 71 1012.5
20260506162410 61 216 7.8 12.2 0.00 0.03 0.01 72 1012.5
20260506161910 61 202 7.8 12.2 0.00 0.03 0.01 71 1012.5
20260506161410 61 207 7.8 12.2 0.00 0.03 0.01 72 1012.6
20260506160910 61 207 7.8 13.0 0.00 0.03 0.01 70 1012.6
20260506160410 61 208 8.7 15.6 0.00 0.03 0.01 67 1012.6
20260506155410 62 45 0.0 0.9 0.00 0.03 0.01 65 1012.5
20260506154910 62 45 0.0 0.0 0.00 0.03 0.01 63 1012.5
20260506154410 62 45 0.0 1.7 0.00 0.03 0.01 60 1012.5
20260506153909 62 45 1.7 2.6 0.00 0.03 0.01 59 1012.5
20260506153410 63 45 0.0 4.3 0.00 0.03 0.01 57 1012.6
20260506152911 63 45 0.0 1.7 0.00 0.03 0.01 58 1012.5
20260506152409 63 45 0.0 1.7 0.00 0.03 0.01 56 1012.6
20260506151910 64 45 0.9 2.6 0.00 0.03 0.01 54 1012.6
20260506150909 63 45 0.9 2.6 0.00 0.03 0.01 55 1012.7
20260506145911 63 45 1.7 4.3 0.00 0.03 0.01 58 1012.9
20260506145410 63 45 0.9 4.3 0.00 0.05 0.01 57 1013.0
20260506144910 63 45 0.9 2.6 0.00 0.07 0.01 57 1013.1
20260506144410 63 45 0.0 2.6 0.00 0.07 0.01 56 1013.2
20260506143910 63 45 0.9 2.6 0.00 0.08 0.01 56 1013.3
20260506143410 63 45 0.9 2.6 0.00 0.08 0.01 56 1013.3
20260506142410 63 45 0.0 2.6 0.00 0.09 0.01 54 1013.4
20260506141910 63 45 1.7 2.6 0.00 0.09 0.01 53 1013.5
20260506141410 63 45 1.7 4.3 0.00 0.09 0.01 54 1013.5
20260506135410 63 46 2.6 5.2 0.00 0.09 0.01 54 1013.7
20260506134910 63 46 1.7 6.1 0.00 0.09 0.01 53 1013.7
20260506134410 63 46 1.7 6.1 0.00 0.09 0.01 54 1013.8
20260506133411 63 46 2.6 6.1 0.00 0.09 0.01 55 1013.8
20260506132911 62 51 0.9 5.2 0.00 0.09 0.01 54 1013.9
20260506132410 62 52 0.9 5.2 0.00 0.09 0.01 54 1013.9
20260506131910 63 73 0.9 5.2 0.00 0.09 0.01 56 1013.9
20260506131410 63 326 0.9 4.3 0.00 0.09 0.01 59 1013.9
20260506130910 64 326 5.2 8.7 0.00 0.09 0.01 56 1014.0
20260506130410 63 51 0.9 4.3 0.00 0.09 0.01 56 1014.1
20260506125910 63 50 0.9 7.0 0.00 0.09 0.01 54 1014.2
20260506125409 63 34 1.7 8.7 0.00 0.09 0.01 56 1014.1
20260506124909 63 355 6.1 10.4 0.00 0.09 0.01 53 1014.2
20260506124410 63 26 1.7 8.7 0.00 0.09 0.01 53 1014.2
20260506123910 63 49 2.6 8.7 0.00 0.09 0.01 51 1014.2
20260506123410 63 32 6.1 12.2 0.00 0.09 0.01 56 1014.3
20260506122911 63 44 2.6 7.0 0.00 0.09 0.01 60 1014.3
20260506122409 62 78 3.5 8.7 0.00 0.09 0.01 59 1014.4
20260506121411 63 58 2.6 7.0 0.00 0.09 0.01 57 1014.5
20260506120911 62 33 4.3 7.8 0.00 0.09 0.01 62 1014.6
20260506120410 62 27 6.1 10.4 0.00 0.09 0.01 56 1014.6
20260506115910 63 64 2.6 8.7 0.00 0.09 0.01 59 1014.6
20260506115410 62 46 2.6 6.1 0.00 0.09 0.01 60 1014.7
20260506114910 62 63 3.5 8.7 0.00 0.09 0.01 58 1014.9
20260506114409 61 41 0.9 5.2 0.00 0.09 0.01 60 1014.9
20260506113910 61 41 2.6 6.1 0.00 0.09 0.01 58 1015.0
20260506113410 60 46 1.7 6.1 0.00 0.09 0.01 62 1015.1
20260506112911 60 39 4.3 8.7 0.00 0.09 0.01 65 1015.1
20260506111410 59 46 2.6 6.1 0.00 0.09 0.01 66 1015.2
20260506110910 59 49 2.6 5.2 0.00 0.09 0.01 66 1015.3
20260506110410 59 50 4.3 6.1 0.00 0.09 0.01 65 1015.4
20260506105911 59 39 4.3 7.8 0.00 0.09 0.01 64 1015.4
20260506105410 60 32 4.3 8.7 0.00 0.09 0.01 65 1015.3
20260506104910 59 47 4.3 6.1 0.00 0.09 0.01 65 1015.4
20260506103910 59 34 5.2 8.7 0.00 0.09 0.01 66 1015.4
20260506102911 59 57 2.6 7.0 0.00 0.09 0.01 68 1015.5
20260506102410 59 47 1.7 6.1 0.00 0.09 0.01 70 1015.6
20260506101910 59 28 5.2 7.8 0.00 0.09 0.01 71 1015.6
20260506101410 58 38 1.7 6.1 0.00 0.09 0.01 72 1015.6
20260506100910 58 36 5.2 7.0 0.00 0.09 0.01 73 1015.6
20260506100410 58 47 2.6 5.2 0.00 0.09 0.01 71 1015.6